STARLINK-31666 (59572 NORAD) Tracking and Keplerian Element Data

This shows tracking and keplerian element data for the satellite.

Feedback or suggestion? Click here.




ElementValue
Catalog59572
NameSTARLINK-31666
Epoch Orbit832
Epoch Day160.10751809
Epoch Year2024
RAAN52.4525
Inclination43.0006
Eccentricity4.66E-05
Argument of Perigee122.0671
Mean Anonmoly238.0231
Mean Motion15.40706871
Decay Rate4.083E-05
L11 59572U 24076J 24160.10751809 .00004083 00000+0 10492-3 0 9994
L22 59572 43.0006 52.4525 0000466 122.0671 238.0231 15.40706871 8322



Live tracking and technical data element details for STARLINK-31666 (NORAD 59572). STARLINK-31666 can be tracked NOW for your location showing map with azimuth and elevation plus other details from your city location.







IsCatalogInMostPopularTable: catalog: 59572, numindb: 10
Update: records affected: 1



GetName: 59572 STARLINK-31666

Hit Count: updated at: Fri, 14 Jun 2024 19:28:00 GMT